TimeAKDT,TemperatureF,Dew PointF,Humidity,Sea Level PressureIn,VisibilityMPH,Wind Direction,Wind SpeedMPH,Gust SpeedMPH,PrecipitationIn,Events,Conditions,WindDirDegrees,DateUTC
12:53 AM,68.0,53.1,59,30.03,10.0,Calm,Calm,-,N/A,,Overcast,0,2013-07-24 08:53:00
1:53 AM,61.0,54.0,78,30.03,10.0,Calm,Calm,-,N/A,,Clear,0,2013-07-24 09:53:00
2:53 AM,59.0,53.1,81,30.04,10.0,Calm,Calm,-,N/A,,Partly Cloudy,0,2013-07-24 10:53:00
3:53 AM,57.0,53.1,87,30.04,10.0,Calm,Calm,-,N/A,,Overcast,0,2013-07-24 11:53:00
4:53 AM,57.0,53.1,87,30.05,10.0,Calm,Calm,-,N/A,,Overcast,0,2013-07-24 12:53:00
5:53 AM,55.9,52.0,87,30.05,10.0,Calm,Calm,-,N/A,,Partly Cloudy,0,2013-07-24 13:53:00
6:53 AM,55.0,52.0,89,30.05,10.0,Calm,Calm,-,N/A,,Clear,0,2013-07-24 14:53:00
7:53 AM,60.1,52.0,75,30.04,10.0,Calm,Calm,-,N/A,,Clear,0,2013-07-24 15:53:00
8:53 AM,64.9,53.1,65,30.03,10.0,Calm,Calm,-,N/A,,Mostly Cloudy,0,2013-07-24 16:53:00
9:53 AM,66.9,54.0,63,30.02,10.0,Calm,Calm,-,N/A,,Mostly Cloudy,0,2013-07-24 17:53:00
10:53 AM,69.1,52.0,54,30.01,10.0,Calm,Calm,-,N/A,,Clear,0,2013-07-24 18:53:00
11:53 AM,71.1,52.0,51,30.00,10.0,SW,3.5,-,N/A,,Clear,220,2013-07-24 19:53:00
12:53 PM,75.0,50.0,41,29.99,10.0,SW,4.6,-,N/A,,Clear,220,2013-07-24 20:53:00
1:53 PM,77.0,48.0,36,29.98,10.0,Variable,3.5,-,N/A,,Scattered Clouds,0,2013-07-24 21:53:00
2:53 PM,79.0,52.0,39,29.96,10.0,Calm,Calm,-,N/A,,Clear,0,2013-07-24 22:53:00
3:53 PM,79.0,53.1,40,29.94,10.0,SSW,4.6,-,N/A,,Scattered Clouds,200,2013-07-24 23:53:00
4:53 PM,79.0,52.0,39,29.93,10.0,Calm,Calm,-,N/A,,Clear,0,2013-07-25 00:53:00
5:53 PM,81.0,52.0,36,29.92,10.0,WSW,3.5,-,N/A,,Clear,240,2013-07-25 01:53:00
6:53 PM,81.0,54.0,39,29.91,10.0,South,4.6,-,N/A,,Clear,190,2013-07-25 02:53:00
7:53 PM,80.1,51.1,36,29.91,10.0,Calm,Calm,-,N/A,,Clear,0,2013-07-25 03:53:00
8:53 PM,80.1,53.1,39,29.91,10.0,Calm,Calm,-,N/A,,Clear,0,2013-07-25 04:53:00
9:53 PM,73.0,57.9,59,29.91,10.0,Calm,Calm,-,N/A,,Mostly Cloudy,0,2013-07-25 05:53:00
10:53 PM,72.0,59.0,64,29.91,10.0,Calm,Calm,-,N/A,,Partly Cloudy,0,2013-07-25 06:53:00
11:53 PM,70.0,55.9,61,29.92,10.0,South,4.6,-,N/A,,Clear,190,2013-07-25 07:53:00